Tracking 18942 objects as of 18-Jan-2018
HD Live streaming from Space Station
objects crossing your sky now

FENGYUN 1C DEB

Track FENGYUN 1C DEB now!
10-day predictions


NORAD ID: 33710
Int'l Code: 1999-025DGX
Perigee: 849.1 km
Apogee: 930.4 km
Inclination: 99.1 °
Period: 102.6 minutes
Semi major axis: 7260 km
RCS: 0.0027 m2 (small)
Launch date: May 10, 1999
Source: People's Republic of China (PRC)
Launch site: Taiyaun Space Center, China (TSC)

Note: This is SATELLITE DEBRIS
aabbcc
Your satellite tracking list
Your tracking list is empty




NASA's NSSDC Master Catalog

Two Line Element Set (TLE):
1 33710U 99025DGX 18012.99370987 +.00000563 +00000-0 +38464-3 0  9995
2 33710 099.0667 092.9120 0055931 293.2254 066.3029 14.03235736270476
Source of the keplerian elements: AFSPC